Year,Month,Day,Hour,Minute,Value (Times are PST for temperature in C)
2010,09,30,00,00,9.20
2010,09,30,00,01,9.20
2010,09,30,00,02,9.10
2010,09,30,00,03,9.10
2010,09,30,00,04,9.10
2010,09,30,00,05,9.10
2010,09,30,00,06,9.10
2010,09,30,00,07,9.10
2010,09,30,00,08,9.10
2010,09,30,00,09,9.10
2010,09,30,00,10,9.20
2010,09,30,00,11,9.20
2010,09,30,00,12,9.20
2010,09,30,00,13,9.30
2010,09,30,00,14,9.30
2010,09,30,00,15,9.30
2010,09,30,00,16,9.30
2010,09,30,00,17,9.30
2010,09,30,00,18,9.40
2010,09,30,00,19,9.40
2010,09,30,00,20,9.50
2010,09,30,00,21,9.50
2010,09,30,00,22,9.60
2010,09,30,00,23,9.60
2010,09,30,00,24,9.60
2010,09,30,00,25,9.60
2010,09,30,00,26,9.60
2010,09,30,00,27,9.60
2010,09,30,00,28,9.60
2010,09,30,00,29,9.60
2010,09,30,00,30,9.60
2010,09,30,00,31,9.70
2010,09,30,00,32,9.70
2010,09,30,00,33,9.80
2010,09,30,00,34,9.80
2010,09,30,00,35,10.00
2010,09,30,00,36,10.10
2010,09,30,00,37,10.30
2010,09,30,00,38,10.40
2010,09,30,00,39,10.60
2010,09,30,00,40,10.80
2010,09,30,00,41,11.00
2010,09,30,00,42,11.20
2010,09,30,00,43,11.40
2010,09,30,00,44,11.50
2010,09,30,00,45,11.80
2010,09,30,00,46,11.90
2010,09,30,00,47,12.00
2010,09,30,00,48,12.10
2010,09,30,00,49,12.30
2010,09,30,00,50,12.50
2010,09,30,00,51,12.70
2010,09,30,00,52,12.80
2010,09,30,00,53,12.90
2010,09,30,00,54,13.10
2010,09,30,00,55,13.10
2010,09,30,00,56,13.20
2010,09,30,00,57,13.20
2010,09,30,00,58,13.30
2010,09,30,00,59,13.30
2010,09,30,01,00,13.30
2010,09,30,01,01,13.30
2010,09,30,01,02,13.30
2010,09,30,01,03,13.30
2010,09,30,01,04,13.30
2010,09,30,01,05,13.20
2010,09,30,01,06,13.20
2010,09,30,01,07,13.20
2010,09,30,01,08,13.20
2010,09,30,01,09,13.20
2010,09,30,01,10,13.20
2010,09,30,01,11,13.30
2010,09,30,01,12,13.30
2010,09,30,01,13,13.40
2010,09,30,01,14,13.50
2010,09,30,01,15,13.50
2010,09,30,01,16,13.60
2010,09,30,01,17,13.60
2010,09,30,01,18,13.60
2010,09,30,01,19,13.60
2010,09,30,01,20,13.60
2010,09,30,01,21,13.60
2010,09,30,01,22,13.50
2010,09,30,01,23,13.40
2010,09,30,01,24,13.40
2010,09,30,01,25,13.30
2010,09,30,01,26,13.40
2010,09,30,01,27,13.40
2010,09,30,01,28,13.40
2010,09,30,01,29,13.40
2010,09,30,01,30,13.40
2010,09,30,01,31,13.50
2010,09,30,01,32,13.50
2010,09,30,01,33,13.50
2010,09,30,01,34,13.50
2010,09,30,01,35,13.40
2010,09,30,01,36,13.40
2010,09,30,01,37,13.40
2010,09,30,01,38,13.40
2010,09,30,01,39,13.40
2010,09,30,01,40,13.30
2010,09,30,01,41,13.30
2010,09,30,01,42,13.30
2010,09,30,01,43,13.30
2010,09,30,01,44,13.30
2010,09,30,01,45,13.30
2010,09,30,01,46,13.30
2010,09,30,01,47,13.20
2010,09,30,01,48,13.20
2010,09,30,01,49,13.20
2010,09,30,01,50,13.20
2010,09,30,01,51,13.20
2010,09,30,01,52,13.20
2010,09,30,01,53,13.20
2010,09,30,01,54,13.20
2010,09,30,01,55,13.20
2010,09,30,01,56,13.20
2010,09,30,01,57,13.10
2010,09,30,01,58,13.10
2010,09,30,01,59,13.10
2010,09,30,02,00,13.10
2010,09,30,02,01,13.10
2010,09,30,02,02,13.00
2010,09,30,02,03,12.90
2010,09,30,02,04,12.90
2010,09,30,02,05,12.80
2010,09,30,02,06,12.80
2010,09,30,02,07,12.80
2010,09,30,02,08,12.70
2010,09,30,02,09,12.70
2010,09,30,02,10,12.70
2010,09,30,02,11,12.70
2010,09,30,02,12,12.60
2010,09,30,02,13,12.60
2010,09,30,02,14,12.50
2010,09,30,02,15,12.50
2010,09,30,02,16,12.40
2010,09,30,02,17,12.40
2010,09,30,02,18,12.40
2010,09,30,02,19,12.30
2010,09,30,02,20,12.30
2010,09,30,02,21,12.30
2010,09,30,02,22,12.20
2010,09,30,02,23,12.10
2010,09,30,02,24,12.10
2010,09,30,02,25,12.00
2010,09,30,02,26,12.00
2010,09,30,02,27,11.90
2010,09,30,02,28,11.90
2010,09,30,02,29,11.80
2010,09,30,02,30,11.80
2010,09,30,02,31,11.80
2010,09,30,02,32,11.80
2010,09,30,02,33,11.70
2010,09,30,02,34,11.70
2010,09,30,02,35,11.70
2010,09,30,02,36,11.70
2010,09,30,02,37,11.70
2010,09,30,02,38,11.70
2010,09,30,02,39,11.60
2010,09,30,02,40,11.60
2010,09,30,02,41,11.60
2010,09,30,02,42,11.60
2010,09,30,02,43,11.60
2010,09,30,02,44,11.60
2010,09,30,02,45,11.60
2010,09,30,02,46,11.60
2010,09,30,02,47,11.60
2010,09,30,02,48,11.70
2010,09,30,02,49,11.70
2010,09,30,02,50,11.70
2010,09,30,02,51,11.70
2010,09,30,02,52,11.70
2010,09,30,02,53,11.70
2010,09,30,02,54,11.70
2010,09,30,02,55,11.70
2010,09,30,02,56,11.60
2010,09,30,02,57,11.60
2010,09,30,02,58,11.60
2010,09,30,02,59,11.50
2010,09,30,03,00,11.50
2010,09,30,03,01,11.40
2010,09,30,03,02,11.40
2010,09,30,03,03,11.40
2010,09,30,03,04,11.30
2010,09,30,03,05,11.30
2010,09,30,03,06,11.30
2010,09,30,03,07,11.30
2010,09,30,03,08,11.30
2010,09,30,03,09,11.20
2010,09,30,03,10,11.20
2010,09,30,03,11,11.20
2010,09,30,03,12,11.20
2010,09,30,03,13,11.20
2010,09,30,03,14,11.10
2010,09,30,03,15,11.10
2010,09,30,03,16,11.10
2010,09,30,03,17,11.10
2010,09,30,03,18,11.00
2010,09,30,03,19,11.00
2010,09,30,03,20,10.90
2010,09,30,03,21,10.90
2010,09,30,03,22,10.90
2010,09,30,03,23,10.90
2010,09,30,03,24,10.90
2010,09,30,03,25,10.80
2010,09,30,03,26,10.80
2010,09,30,03,27,10.80
2010,09,30,03,28,10.80
2010,09,30,03,29,10.80
2010,09,30,03,30,10.80
2010,09,30,03,31,10.80
2010,09,30,03,32,10.90
2010,09,30,03,33,11.00
2010,09,30,03,34,11.10
2010,09,30,03,35,11.20
2010,09,30,03,36,11.30
2010,09,30,03,37,11.40
2010,09,30,03,38,11.40
2010,09,30,03,39,11.50
2010,09,30,03,40,11.60
2010,09,30,03,41,11.80
2010,09,30,03,42,11.90
2010,09,30,03,43,11.90
2010,09,30,03,44,12.00
2010,09,30,03,45,12.10
2010,09,30,03,46,12.10
2010,09,30,03,47,12.20
2010,09,30,03,48,12.20
2010,09,30,03,49,12.20
2010,09,30,03,50,12.20
2010,09,30,03,51,12.20
2010,09,30,03,52,12.20
2010,09,30,03,53,12.20
2010,09,30,03,54,12.20
2010,09,30,03,55,12.10
2010,09,30,03,56,12.10
2010,09,30,03,57,12.10
2010,09,30,03,58,12.10
2010,09,30,03,59,12.10
2010,09,30,04,00,12.10
2010,09,30,04,01,12.10
2010,09,30,04,02,12.10
2010,09,30,04,03,12.10
2010,09,30,04,04,12.20
2010,09,30,04,05,12.20
2010,09,30,04,06,12.30
2010,09,30,04,07,12.40
2010,09,30,04,08,12.50
2010,09,30,04,09,12.60
2010,09,30,04,10,12.60
2010,09,30,04,11,12.70
2010,09,30,04,12,12.80
2010,09,30,04,13,12.80
2010,09,30,04,14,12.80
2010,09,30,04,15,12.80
2010,09,30,04,16,12.80
2010,09,30,04,17,12.80
2010,09,30,04,18,12.80
2010,09,30,04,19,12.80
2010,09,30,04,20,12.80
2010,09,30,04,21,12.90
2010,09,30,04,22,12.90
2010,09,30,04,23,12.90
2010,09,30,04,24,12.90
2010,09,30,04,25,12.90
2010,09,30,04,26,12.90
2010,09,30,04,27,12.90
2010,09,30,04,28,12.90
2010,09,30,04,29,12.80
2010,09,30,04,30,12.80
2010,09,30,04,31,12.80
2010,09,30,04,32,12.80
2010,09,30,04,33,12.80
2010,09,30,04,34,12.80
2010,09,30,04,35,12.80
2010,09,30,04,36,12.80
2010,09,30,04,37,12.80
2010,09,30,04,38,12.80
2010,09,30,04,39,12.80
2010,09,30,04,40,12.80
2010,09,30,04,41,12.80
2010,09,30,04,42,12.80
2010,09,30,04,43,12.80
2010,09,30,04,44,12.80
2010,09,30,04,45,12.80
2010,09,30,04,46,12.80
2010,09,30,04,47,12.70
2010,09,30,04,48,12.70
2010,09,30,04,49,12.70
2010,09,30,04,50,12.70
2010,09,30,04,51,12.70
2010,09,30,04,52,12.70
2010,09,30,04,53,12.80
2010,09,30,04,54,12.80
2010,09,30,04,55,12.80
2010,09,30,04,56,12.80
2010,09,30,04,57,12.90
2010,09,30,04,58,12.90
2010,09,30,04,59,12.90
2010,09,30,05,00,12.90
2010,09,30,05,01,12.90
2010,09,30,05,02,12.90
2010,09,30,05,03,13.00
2010,09,30,05,04,13.00
2010,09,30,05,05,13.10
2010,09,30,05,06,13.10
2010,09,30,05,07,13.10
2010,09,30,05,08,13.20
2010,09,30,05,09,13.20
2010,09,30,05,10,13.20
2010,09,30,05,11,13.20
2010,09,30,05,12,13.20
2010,09,30,05,13,13.20
2010,09,30,05,14,13.20
2010,09,30,05,15,13.20
2010,09,30,05,16,13.20
2010,09,30,05,17,13.20
2010,09,30,05,18,13.10
2010,09,30,05,19,13.20
2010,09,30,05,20,13.20
2010,09,30,05,21,13.20
2010,09,30,05,22,13.20
2010,09,30,05,23,13.20
2010,09,30,05,24,13.20
2010,09,30,05,25,13.20
2010,09,30,05,26,13.20
2010,09,30,05,27,13.20
2010,09,30,05,28,13.20
2010,09,30,05,29,13.10
2010,09,30,05,30,13.10
2010,09,30,05,31,13.10
2010,09,30,05,32,13.00
2010,09,30,05,33,12.90
2010,09,30,05,34,12.90
2010,09,30,05,35,12.80
2010,09,30,05,36,12.70
2010,09,30,05,37,12.70
2010,09,30,05,38,12.60
2010,09,30,05,39,12.50
2010,09,30,05,40,12.40
2010,09,30,05,41,12.30
2010,09,30,05,42,12.20
2010,09,30,05,43,12.10
2010,09,30,05,44,12.10
2010,09,30,05,45,12.00
2010,09,30,05,46,11.90
2010,09,30,05,47,11.80
2010,09,30,05,48,11.70
2010,09,30,05,49,11.60
2010,09,30,05,50,11.50
2010,09,30,05,51,11.50
2010,09,30,05,52,11.40
2010,09,30,05,53,11.30
2010,09,30,05,54,11.30
2010,09,30,05,55,11.20
2010,09,30,05,56,11.20
2010,09,30,05,57,11.10
2010,09,30,05,58,11.10
2010,09,30,05,59,11.00
2010,09,30,06,00,11.00
2010,09,30,06,01,10.90
2010,09,30,06,02,10.80
2010,09,30,06,03,10.80
2010,09,30,06,04,10.80
2010,09,30,06,05,10.70
2010,09,30,06,06,10.70
2010,09,30,06,07,10.60
2010,09,30,06,08,10.70
2010,09,30,06,09,10.70
2010,09,30,06,10,10.70
2010,09,30,06,11,10.60
2010,09,30,06,12,10.60
2010,09,30,06,13,10.60
2010,09,30,06,14,10.60
2010,09,30,06,15,10.60
2010,09,30,06,16,10.60
2010,09,30,06,17,10.70
2010,09,30,06,18,10.70
2010,09,30,06,19,10.70
2010,09,30,06,20,10.70
2010,09,30,06,21,10.70
2010,09,30,06,22,10.70
2010,09,30,06,23,10.70
2010,09,30,06,24,10.70
2010,09,30,06,25,10.70
2010,09,30,06,26,10.70
2010,09,30,06,27,10.70
2010,09,30,06,28,10.70
2010,09,30,06,29,10.70
2010,09,30,06,30,10.70
2010,09,30,06,31,10.70
2010,09,30,06,32,10.70
2010,09,30,06,33,10.60
2010,09,30,06,34,10.60
2010,09,30,06,35,10.60
2010,09,30,06,36,10.60
2010,09,30,06,37,10.60
2010,09,30,06,38,10.50
2010,09,30,06,39,10.50
2010,09,30,06,40,10.40
2010,09,30,06,41,10.40
2010,09,30,06,42,10.40
2010,09,30,06,43,10.40
2010,09,30,06,44,10.40
2010,09,30,06,45,10.40
2010,09,30,06,46,10.40
2010,09,30,06,47,10.40
2010,09,30,06,48,10.40
2010,09,30,06,49,10.50
2010,09,30,06,50,10.40
2010,09,30,06,51,10.40
2010,09,30,06,52,10.40
2010,09,30,06,53,10.40
2010,09,30,06,54,10.40
2010,09,30,06,55,10.50
2010,09,30,06,56,10.50
2010,09,30,06,57,10.50
2010,09,30,06,58,10.60
2010,09,30,06,59,10.50
2010,09,30,07,00,10.60
2010,09,30,07,01,10.60
2010,09,30,07,02,10.70
2010,09,30,07,03,10.80
2010,09,30,07,04,10.80
2010,09,30,07,05,10.80
2010,09,30,07,06,10.90
2010,09,30,07,07,11.10
2010,09,30,07,08,11.20
2010,09,30,07,09,11.30
2010,09,30,07,10,11.30
2010,09,30,07,11,11.30
2010,09,30,07,12,11.20
2010,09,30,07,13,11.20
2010,09,30,07,14,11.10
2010,09,30,07,15,11.10
2010,09,30,07,16,11.00
2010,09,30,07,17,11.00
2010,09,30,07,18,10.90
2010,09,30,07,19,10.90
2010,09,30,07,20,10.80
2010,09,30,07,21,10.80
2010,09,30,07,22,10.80
2010,09,30,07,23,10.70
2010,09,30,07,24,10.60
2010,09,30,07,25,10.60
2010,09,30,07,26,10.60
2010,09,30,07,27,10.60
2010,09,30,07,28,10.50
2010,09,30,07,29,10.50
2010,09,30,07,30,10.40
2010,09,30,07,31,10.30
2010,09,30,07,32,10.20
2010,09,30,07,33,10.20
2010,09,30,07,34,10.20
2010,09,30,07,35,10.20
2010,09,30,07,36,10.20
2010,09,30,07,37,10.10
2010,09,30,07,38,10.10
2010,09,30,07,39,10.10
2010,09,30,07,40,10.10
2010,09,30,07,41,10.10
2010,09,30,07,42,10.10
2010,09,30,07,43,10.10
2010,09,30,07,44,10.10
2010,09,30,07,45,10.10
2010,09,30,07,46,10.10
2010,09,30,07,47,10.10
2010,09,30,07,48,10.10
2010,09,30,07,49,10.10
2010,09,30,07,50,10.10
2010,09,30,07,51,10.10
2010,09,30,07,52,10.10
2010,09,30,07,53,10.10
2010,09,30,07,54,10.20
2010,09,30,07,55,10.20
2010,09,30,07,56,10.20
2010,09,30,07,57,10.20
2010,09,30,07,58,10.20
2010,09,30,07,59,10.30
2010,09,30,08,00,10.30
2010,09,30,08,01,10.30
2010,09,30,08,02,10.30
2010,09,30,08,03,10.30
2010,09,30,08,04,10.40
2010,09,30,08,05,10.40
2010,09,30,08,06,10.50
2010,09,30,08,07,10.50
2010,09,30,08,08,10.60
2010,09,30,08,09,10.60
2010,09,30,08,10,10.60
2010,09,30,08,11,10.60
2010,09,30,08,12,10.70
2010,09,30,08,13,10.70
2010,09,30,08,14,10.80
2010,09,30,08,15,10.80
2010,09,30,08,16,10.80
2010,09,30,08,17,10.90
2010,09,30,08,18,11.00
2010,09,30,08,19,11.00
2010,09,30,08,20,11.10
2010,09,30,08,21,11.20
2010,09,30,08,22,11.30
2010,09,30,08,23,11.30
2010,09,30,08,24,11.40
2010,09,30,08,25,11.60
2010,09,30,08,26,11.70
2010,09,30,08,27,11.80
2010,09,30,08,28,11.80
2010,09,30,08,29,11.90
2010,09,30,08,30,12.00
2010,09,30,08,31,12.10
2010,09,30,08,32,12.30
2010,09,30,08,33,12.40
2010,09,30,08,34,12.60
2010,09,30,08,35,12.70
2010,09,30,08,36,12.90
2010,09,30,08,37,13.00
2010,09,30,08,38,13.00
2010,09,30,08,39,13.20
2010,09,30,08,40,13.30
2010,09,30,08,41,13.30
2010,09,30,08,42,13.30
2010,09,30,08,43,13.40
2010,09,30,08,44,13.40
2010,09,30,08,45,13.50
2010,09,30,08,46,13.50
2010,09,30,08,47,13.60
2010,09,30,08,48,13.60
2010,09,30,08,49,13.70
2010,09,30,08,50,13.80
2010,09,30,08,51,13.80
2010,09,30,08,52,13.90
2010,09,30,08,53,13.90
2010,09,30,08,54,13.90
2010,09,30,08,55,14.00
2010,09,30,08,56,14.10
2010,09,30,08,57,14.10
2010,09,30,08,58,14.20
2010,09,30,08,59,14.30
2010,09,30,09,00,14.40
2010,09,30,09,01,14.40
2010,09,30,09,02,14.50
2010,09,30,09,03,14.60
2010,09,30,09,04,14.60
2010,09,30,09,05,14.60
2010,09,30,09,06,14.70
2010,09,30,09,07,14.70
2010,09,30,09,08,14.80
2010,09,30,09,09,14.80
2010,09,30,09,10,14.90
2010,09,30,09,11,14.90
2010,09,30,09,12,14.90
2010,09,30,09,13,15.00
2010,09,30,09,14,15.00
2010,09,30,09,15,15.00
2010,09,30,09,16,15.00
2010,09,30,09,17,15.00
2010,09,30,09,18,15.00
2010,09,30,09,19,15.00
2010,09,30,09,20,15.00
2010,09,30,09,21,15.00
2010,09,30,09,22,15.20
2010,09,30,09,23,15.20
2010,09,30,09,24,15.30
2010,09,30,09,25,15.30
2010,09,30,09,26,15.30
2010,09,30,09,27,15.30
2010,09,30,09,28,15.30
2010,09,30,09,29,15.20
2010,09,30,09,30,15.20
2010,09,30,09,31,15.30
2010,09,30,09,32,15.40
2010,09,30,09,33,15.50
2010,09,30,09,34,15.60
2010,09,30,09,35,15.70
2010,09,30,09,36,15.70
2010,09,30,09,37,15.70
2010,09,30,09,38,15.80
2010,09,30,09,39,15.80
2010,09,30,09,40,15.90
2010,09,30,09,41,15.90
2010,09,30,09,42,16.00
2010,09,30,09,43,16.10
2010,09,30,09,44,16.30
2010,09,30,09,45,16.30
2010,09,30,09,46,16.30
2010,09,30,09,47,16.30
2010,09,30,09,48,16.30
2010,09,30,09,49,16.30
2010,09,30,09,50,16.10
2010,09,30,09,51,16.10
2010,09,30,09,52,16.10
2010,09,30,09,53,16.00
2010,09,30,09,54,16.00
2010,09,30,09,55,16.00
2010,09,30,09,56,16.00
2010,09,30,09,57,15.90
2010,09,30,09,58,15.90
2010,09,30,09,59,16.00
2010,09,30,10,00,16.10
2010,09,30,10,01,16.10
2010,09,30,10,02,16.10
2010,09,30,10,03,16.20
2010,09,30,10,04,16.20
2010,09,30,10,05,16.20
2010,09,30,10,06,16.20
2010,09,30,10,07,16.30
2010,09,30,10,08,16.30
2010,09,30,10,09,16.30
2010,09,30,10,10,16.30
2010,09,30,10,11,16.30
2010,09,30,10,12,16.40
2010,09,30,10,13,16.40
2010,09,30,10,14,16.50
2010,09,30,10,15,16.70
2010,09,30,10,16,16.80
2010,09,30,10,17,16.90
2010,09,30,10,18,17.10
2010,09,30,10,19,17.20
2010,09,30,10,20,17.30
2010,09,30,10,21,17.40
2010,09,30,10,22,17.50
2010,09,30,10,23,17.50
2010,09,30,10,24,17.60
2010,09,30,10,25,17.70
2010,09,30,10,26,17.70
2010,09,30,10,27,17.70
2010,09,30,10,28,17.70
2010,09,30,10,29,17.80
2010,09,30,10,30,17.80
2010,09,30,10,31,17.80
2010,09,30,10,32,17.90
2010,09,30,10,33,17.90
2010,09,30,10,34,18.00
2010,09,30,10,35,18.00
2010,09,30,10,36,18.10
2010,09,30,10,37,18.10
2010,09,30,10,38,18.10
2010,09,30,10,39,17.90
2010,09,30,10,40,17.80
2010,09,30,10,41,17.70
2010,09,30,10,42,17.60
2010,09,30,10,43,17.60
2010,09,30,10,44,17.60
2010,09,30,10,45,17.60
2010,09,30,10,46,17.60
2010,09,30,10,47,17.60
2010,09,30,10,48,17.60
2010,09,30,10,49,17.70
2010,09,30,10,50,17.80
2010,09,30,10,51,17.90
2010,09,30,10,52,18.00
2010,09,30,10,53,18.10
2010,09,30,10,54,18.20
2010,09,30,10,55,18.20
2010,09,30,10,56,18.20
2010,09,30,10,57,18.20
2010,09,30,10,58,18.20
2010,09,30,10,59,18.20
2010,09,30,11,00,18.30
2010,09,30,11,01,18.30
2010,09,30,11,02,18.40
2010,09,30,11,03,18.50
2010,09,30,11,04,18.60
2010,09,30,11,05,18.60
2010,09,30,11,06,18.70
2010,09,30,11,07,18.80
2010,09,30,11,08,18.80
2010,09,30,11,09,18.70
2010,09,30,11,10,18.60
2010,09,30,11,11,18.50
2010,09,30,11,12,18.50
2010,09,30,11,13,18.60
2010,09,30,11,14,18.50
2010,09,30,11,15,18.40
2010,09,30,11,16,18.30
2010,09,30,11,17,18.30
2010,09,30,11,18,18.20
2010,09,30,11,19,18.10
2010,09,30,11,20,18.10
2010,09,30,11,21,18.10
2010,09,30,11,22,18.10
2010,09,30,11,23,18.20
2010,09,30,11,24,18.20
2010,09,30,11,25,18.20
2010,09,30,11,26,18.20
2010,09,30,11,27,18.20
2010,09,30,11,28,18.20
2010,09,30,11,29,18.20
2010,09,30,11,30,18.20
2010,09,30,11,31,18.20
2010,09,30,11,32,18.30
2010,09,30,11,33,18.40
2010,09,30,11,34,18.50
2010,09,30,11,35,18.60
2010,09,30,11,36,18.70
2010,09,30,11,37,18.70
2010,09,30,11,38,18.80
2010,09,30,11,39,18.90
2010,09,30,11,40,18.90
2010,09,30,11,41,18.90
2010,09,30,11,42,18.90
2010,09,30,11,43,19.00
2010,09,30,11,44,19.00
2010,09,30,11,45,19.10
2010,09,30,11,46,19.10
2010,09,30,11,47,19.10
2010,09,30,11,48,19.10
2010,09,30,11,49,19.00
2010,09,30,11,50,18.90
2010,09,30,11,51,18.80
2010,09,30,11,52,18.80
2010,09,30,11,53,18.80
2010,09,30,11,54,18.90
2010,09,30,11,55,19.00
2010,09,30,11,56,19.10
2010,09,30,11,57,19.20
2010,09,30,11,58,19.30
2010,09,30,11,59,19.40
2010,09,30,12,00,19.40
2010,09,30,12,01,19.40
2010,09,30,12,02,19.20
2010,09,30,12,03,19.00
2010,09,30,12,04,18.90
2010,09,30,12,05,18.80
2010,09,30,12,06,18.80
2010,09,30,12,07,18.80
2010,09,30,12,08,18.80
2010,09,30,12,09,18.80
2010,09,30,12,10,18.80
2010,09,30,12,11,18.80
2010,09,30,12,12,18.80
2010,09,30,12,13,18.80
2010,09,30,12,14,18.80
2010,09,30,12,15,18.80
2010,09,30,12,16,18.80
2010,09,30,12,17,18.90
2010,09,30,12,18,18.90
2010,09,30,12,19,18.90
2010,09,30,12,20,18.90
2010,09,30,12,21,18.90
2010,09,30,12,22,18.90
2010,09,30,12,23,18.90
2010,09,30,12,24,18.90
2010,09,30,12,25,18.90
2010,09,30,12,26,19.00
2010,09,30,12,27,19.10
2010,09,30,12,28,19.20
2010,09,30,12,29,19.30
2010,09,30,12,30,19.30
2010,09,30,12,31,19.30
2010,09,30,12,32,19.30
2010,09,30,12,33,19.30
2010,09,30,12,34,19.40
2010,09,30,12,35,19.50
2010,09,30,12,36,19.50
2010,09,30,12,37,19.60
2010,09,30,12,38,19.70
2010,09,30,12,39,19.70
2010,09,30,12,40,19.70
2010,09,30,12,41,19.70
2010,09,30,12,42,19.60
2010,09,30,12,43,19.60
2010,09,30,12,44,19.60
2010,09,30,12,45,19.60
2010,09,30,12,46,19.60
2010,09,30,12,47,19.60
2010,09,30,12,48,19.60
2010,09,30,12,49,19.60
2010,09,30,12,50,19.60
2010,09,30,12,51,19.60
2010,09,30,12,52,19.60
2010,09,30,12,53,19.60
2010,09,30,12,54,19.60
2010,09,30,12,55,19.70
2010,09,30,12,56,19.70
2010,09,30,12,57,19.70
2010,09,30,12,58,19.80
2010,09,30,12,59,19.80
2010,09,30,13,00,19.80
2010,09,30,13,01,19.90
2010,09,30,13,02,19.90
2010,09,30,13,03,20.00
2010,09,30,13,04,19.90
2010,09,30,13,05,19.90
2010,09,30,13,06,19.80
2010,09,30,13,07,19.80
2010,09,30,13,08,19.80
2010,09,30,13,09,19.80
2010,09,30,13,10,19.80
2010,09,30,13,11,19.80
2010,09,30,13,12,19.90
2010,09,30,13,13,20.00
2010,09,30,13,14,20.00
2010,09,30,13,15,20.00
2010,09,30,13,16,20.00
2010,09,30,13,17,20.00
2010,09,30,13,18,20.10
2010,09,30,13,19,20.10
2010,09,30,13,20,20.20
2010,09,30,13,21,20.20
2010,09,30,13,22,20.30
2010,09,30,13,23,20.30
2010,09,30,13,24,20.30
2010,09,30,13,25,20.30
2010,09,30,13,26,20.30
2010,09,30,13,27,20.30
2010,09,30,13,28,20.30
2010,09,30,13,29,20.30
2010,09,30,13,30,20.40
2010,09,30,13,31,20.40
2010,09,30,13,32,20.50
2010,09,30,13,33,20.50
2010,09,30,13,34,20.50
2010,09,30,13,35,20.50
2010,09,30,13,36,20.60
2010,09,30,13,37,20.60
2010,09,30,13,38,20.60
2010,09,30,13,39,20.70
2010,09,30,13,40,20.70
2010,09,30,13,41,20.70
2010,09,30,13,42,20.70
2010,09,30,13,43,20.70
2010,09,30,13,44,20.70
2010,09,30,13,45,20.70
2010,09,30,13,46,20.60
2010,09,30,13,47,20.60
2010,09,30,13,48,20.60
2010,09,30,13,49,20.70
2010,09,30,13,50,20.70
2010,09,30,13,51,20.60
2010,09,30,13,52,20.70
2010,09,30,13,53,20.70
2010,09,30,13,54,20.70
2010,09,30,13,55,20.80
2010,09,30,13,56,20.80
2010,09,30,13,57,20.90
2010,09,30,13,58,20.90
2010,09,30,13,59,20.90
2010,09,30,14,00,20.90
2010,09,30,14,01,20.90
2010,09,30,14,02,20.90
2010,09,30,14,03,20.90
2010,09,30,14,04,21.00
2010,09,30,14,05,21.00
2010,09,30,14,06,21.10
2010,09,30,14,07,21.10
2010,09,30,14,08,21.10
2010,09,30,14,09,21.10
2010,09,30,14,10,21.10
2010,09,30,14,11,21.20
2010,09,30,14,12,21.20
2010,09,30,14,13,21.20
2010,09,30,14,14,21.30
2010,09,30,14,15,21.30
2010,09,30,14,16,21.40
2010,09,30,14,17,21.40
2010,09,30,14,18,21.40
2010,09,30,14,19,21.40
2010,09,30,14,20,21.40
2010,09,30,14,21,21.40
2010,09,30,14,22,21.40
2010,09,30,14,23,21.40
2010,09,30,14,24,21.40
2010,09,30,14,25,21.40
2010,09,30,14,26,21.30
2010,09,30,14,27,21.30
2010,09,30,14,28,21.20
2010,09,30,14,29,21.10
2010,09,30,14,30,21.10
2010,09,30,14,31,21.00
2010,09,30,14,32,20.90
2010,09,30,14,33,20.90
2010,09,30,14,34,21.00
2010,09,30,14,35,21.00
2010,09,30,14,36,21.10
2010,09,30,14,37,21.10
2010,09,30,14,38,21.10
2010,09,30,14,39,21.10
2010,09,30,14,40,21.10
2010,09,30,14,41,21.20
2010,09,30,14,42,21.20
2010,09,30,14,43,21.30
2010,09,30,14,44,21.30
2010,09,30,14,45,21.30
2010,09,30,14,46,21.30
2010,09,30,14,47,21.30
2010,09,30,14,48,21.30
2010,09,30,14,49,21.40
2010,09,30,14,50,21.40
2010,09,30,14,51,21.50
2010,09,30,14,52,21.50
2010,09,30,14,53,21.50
2010,09,30,14,54,21.40
2010,09,30,14,55,21.40
2010,09,30,14,56,21.40
2010,09,30,14,57,21.30
2010,09,30,14,58,21.30
2010,09,30,14,59,21.30
2010,09,30,15,00,21.20
2010,09,30,15,01,21.20
2010,09,30,15,02,21.20
2010,09,30,15,03,21.20
2010,09,30,15,04,21.20
2010,09,30,15,05,21.30
2010,09,30,15,06,21.30
2010,09,30,15,07,21.40
2010,09,30,15,08,21.50
2010,09,30,15,09,21.50
2010,09,30,15,10,21.60
2010,09,30,15,11,21.70
2010,09,30,15,12,21.70
2010,09,30,15,13,21.70
2010,09,30,15,14,21.80
2010,09,30,15,15,21.80
2010,09,30,15,16,21.80
2010,09,30,15,17,21.80
2010,09,30,15,18,21.80
2010,09,30,15,19,21.80
2010,09,30,15,20,21.90
2010,09,30,15,21,21.80
2010,09,30,15,22,21.90
2010,09,30,15,23,21.90
2010,09,30,15,24,21.90
2010,09,30,15,25,22.00
2010,09,30,15,26,22.00
2010,09,30,15,27,22.00
2010,09,30,15,28,22.00
2010,09,30,15,29,21.90
2010,09,30,15,30,21.90
2010,09,30,15,31,21.80
2010,09,30,15,32,21.80
2010,09,30,15,33,21.90
2010,09,30,15,34,21.90
2010,09,30,15,35,21.90
2010,09,30,15,36,21.80
2010,09,30,15,37,21.90
2010,09,30,15,38,21.90
2010,09,30,15,39,21.90
2010,09,30,15,40,21.90
2010,09,30,15,41,21.90
2010,09,30,15,42,21.90
2010,09,30,15,43,22.00
2010,09,30,15,44,22.10
2010,09,30,15,45,22.10
2010,09,30,15,46,22.10
2010,09,30,15,47,22.10
2010,09,30,15,48,22.20
2010,09,30,15,49,22.20
2010,09,30,15,50,22.20
2010,09,30,15,51,22.10
2010,09,30,15,52,22.10
2010,09,30,15,53,22.10
2010,09,30,15,54,22.00
2010,09,30,15,55,21.90
2010,09,30,15,56,21.90
2010,09,30,15,57,21.90
2010,09,30,15,58,21.80
2010,09,30,15,59,21.90
2010,09,30,16,00,21.90
2010,09,30,16,01,21.90
2010,09,30,16,02,22.00
2010,09,30,16,03,22.10
2010,09,30,16,04,22.10
2010,09,30,16,05,22.20
2010,09,30,16,06,22.20
2010,09,30,16,07,22.30
2010,09,30,16,08,22.30
2010,09,30,16,09,22.40
2010,09,30,16,10,22.50
2010,09,30,16,11,22.50
2010,09,30,16,12,22.60
2010,09,30,16,13,22.60
2010,09,30,16,14,22.60
2010,09,30,16,15,22.70
2010,09,30,16,16,22.70
2010,09,30,16,17,22.80
2010,09,30,16,18,22.90
2010,09,30,16,19,22.90
2010,09,30,16,20,22.90
2010,09,30,16,21,22.90
2010,09,30,16,22,22.90
2010,09,30,16,23,22.80
2010,09,30,16,24,22.80
2010,09,30,16,25,22.70
2010,09,30,16,26,22.60
2010,09,30,16,27,22.50
2010,09,30,16,28,22.40
2010,09,30,16,29,22.40
2010,09,30,16,30,22.30
2010,09,30,16,31,22.20
2010,09,30,16,32,22.20
2010,09,30,16,33,22.20
2010,09,30,16,34,22.20
2010,09,30,16,35,22.20
2010,09,30,16,36,22.20
2010,09,30,16,37,22.20
2010,09,30,16,38,22.20
2010,09,30,16,39,22.10
2010,09,30,16,40,22.20
2010,09,30,16,41,22.20
2010,09,30,16,42,22.20
2010,09,30,16,43,22.20
2010,09,30,16,44,22.20
2010,09,30,16,45,22.20
2010,09,30,16,46,22.10
2010,09,30,16,47,22.10
2010,09,30,16,48,22.10
2010,09,30,16,49,22.10
2010,09,30,16,50,22.00
2010,09,30,16,51,22.00
2010,09,30,16,52,22.00
2010,09,30,16,53,22.10
2010,09,30,16,54,22.10
2010,09,30,16,55,22.10
2010,09,30,16,56,22.10
2010,09,30,16,57,22.00
2010,09,30,16,58,22.00
2010,09,30,16,59,22.10
2010,09,30,17,00,22.10
2010,09,30,17,01,22.20
2010,09,30,17,02,22.30
2010,09,30,17,03,22.40
2010,09,30,17,04,22.50
2010,09,30,17,05,22.60
2010,09,30,17,06,22.50
2010,09,30,17,07,22.50
2010,09,30,17,08,22.50
2010,09,30,17,09,22.40
2010,09,30,17,10,22.30
2010,09,30,17,11,22.20
2010,09,30,17,12,22.10
2010,09,30,17,13,21.90
2010,09,30,17,14,21.80
2010,09,30,17,15,21.80
2010,09,30,17,16,21.70
2010,09,30,17,17,21.60
2010,09,30,17,18,21.50
2010,09,30,17,19,21.50
2010,09,30,17,20,21.40